Thursday, June 30, 2016
01:21 UTC
  |  Log In   |  Register Free
Airport Search:

Madison Municipal Airport
(KIMS)

Madison Municipal Airport Diagram
No Airport Diagram Available

FAA data valid effective May 26 2016 - Jul 21 2016 (unless otherwise noted).

 
 
 
 
 
 
 
 
 
 
 
 
 
 
Current Aviation Weather for KIMS

Weather Summary


Current weather conditions are not available for IMS - The nearest NOAA weather station is at LOU, (33.3 nm SW from IMS)

The most recent METAR observation for IMS was updated at: 12:53 UTC
METAR for KIMS is not available. Closest METAR is for KLOU
KIMS  (most recent observation was updatred at 30:01 UTC)
300111Z AUTO 00000KT 10SM CLR 20/12 A3008 RMK AO1

KLOU  (33.3 nm NE)   (most recent observation was updated at 30:00 UTC)
300053Z 36003KT 10SM CLR 24/11 A3004 RMK AO2 SLP169 T02440111

TAF for KIMS is not available.
GlobalAir.com is loading additional information.
 Current Weather at LOU
78.0 F° (25.6 C°)

Northwest winds at 4.6 mph
Pressure:
30.04 in
Humidity:
42%
Wind:
Northwest at 4.6 mph
Dew Point:
53.1 F° (11.7 C°)
Visibility:
10.00 mi
IMS NOAA Radar




Find All Airport Services Find A Hotel Find A Rental Car Find A Golf Course Find A Restaurant $100 Hamburger



Airport Weather Forecast for KIMS

Translated METAR for KIMS (0111 UTC)
METAR:
KIMS 300111Z AUTO 00000KT 10SM CLR 20/12 A3008 RMK AO1
Conditions at:
KIMS (Madison Muni, IN) observed 0111 UTC 29 June 2016
Temperature:
20°C (68°F)
Dewpoint:
12°C (53.6°F) [RH = 60]
Pressure:
30.08 inches Hg (1018.6 mb)
Winds:
from the N (000 degrees) at 0 mph (0 knots: 0 m/s)
Visibility:
10 mile(s)
Ceiling:
at least 12,000 feet AGL
Clouds:
Clear below 12,000 feet AGL
Remarks:
site is un-manned
site is automated and does NOT have a precipitation sensor

Translated TAF for TAF for IMS is not available. Refer to local area forecast.
FBO's on the Field
FBO Company Facility Photos Services Transportation Aviation Fuel Prices: Prices include tax
Catering Weather Repair Courtesy Rental Type 100LL JetA JetA+ MOGAS 8087
 
City of Madison

Currently rated 5 by 1 person
FS:Shell
Last Updated: Jun-29
Login to update fuel prices
SS:
Contact City of MadisonMore FBO Information
 
Add another FBO Facility Photos Catering Weather Repair Courtesy Rental Type 100LL JetA JetA+ MOGAS 8087
Services Transportation Aviation Fuel Prices: Prices include tax


model-print
model-print
model-print
model-print